Location: Great Snoring
(52.8667°N, 0.8833°E)
Time: 23:55:25
(UTC+00:00)

NOSS 3-1 (C) - Pass Details

Date: 19 May 2025
Orbit: 632 x 1571 km, 63.4° (Epoch: 17 June)

Event Time Altitude Azimuth Distance (km) Brightness Sun altitude
Rises 22:06:48 0° 227° (SW) 3,025 5.9 -13.6°
Reaches altitude 10° 22:08:56 10° 228° (SW) 2,180 5.2 -13.7°
Maximum altitude 22:13:52 84° 316° (NW) 814 3.2 -14.0°
Drops below altitude 10° 22:20:01 10° 47° (NE) 2,693 6.1 -14.4°
Sets 22:22:54 0° 48° (NE) 3,797 6.9 -14.6°
